Flag for U.S.A. Weather past 2 weeks in Chicago, Illinois, U.S.A.

Now
32 °F

Overcast.


Feels Like: 29 °F
Forecast: 26 / 37 °F
Wind: 3 mph from Southwest

Location: Chicago Midway Airport

Current Time: Dec 20, 2014 at 5:46:02 AM

Latest Report: Dec 20, 2014 at 4:53 AM


Visibility: 10 mi

Pressure: 30.31 "Hg

Humidity: 75%

Dew point: 25 °F

Location of ChicagoLocation

Historic Weather in Chicago — Graph

°F

Chicago temperature yesterday

Maximum temperature yesterday: 34 °F (at 12:53 PM)
Minimum temperature yesterday: 29 °F (at 1:53 AM)
Average temperature yesterday: 32 °F

Past Weeks' High & Low Weather Summary

 TemperatureHumidityPressure
High53 °F (Dec 14, 11:53 AM)97% (Dec 14, 11:53 PM)30.68 "Hg (Dec 14, 11:53 PM)
Low25 °F (Dec 12, 2:53 AM)46% (Dec 7, 12:53 PM)29.65 "Hg (Dec 16, 3:53 AM)
Average36 °F78%30.24 "Hg
* Reported Dec 5 4:53 AM — Dec 20 4:53 AM, Chicago, Weather by CustomWeather, © 2014

Note: Actual official high and low records may vary slightly from our data, if they occured in-between our weather recording intervals... More about our weather records

Advertising

Chicago weather history for previous 24 hours

 ConditionsComfort  
Time TempWeatherWind HumidityBarometerVisibility
4:53 AM
Dec 20
32 °FOvercast.3 mph75%30.31 "Hg10 mi
3:53 AM32 °FOvercast.5 mph75%30.31 "Hg9 mi
2:53 AM32 °FOvercast.6 mph75%30.31 "Hg9 mi
1:53 AM32 °FOvercast.6 mph75%30.31 "Hg8 mi
12:53 AM32 °FOvercast.6 mph75%30.30 "Hg8 mi
11:53 PM
Dec 19
33 °FOvercast.6 mph72%30.30 "Hg10 mi
10:53 PM33 °FOvercast.5 mph72%30.30 "Hg9 mi
9:53 PM33 °FOvercast.3 mph72%30.30 "Hg10 mi
8:53 PM33 °FOvercast.5 mph72%30.31 "Hg10 mi
7:53 PM34 °FOvercast.6 mph67%30.31 "Hg10 mi
6:53 PM34 °FOvercast.No wind64%30.32 "Hg10 mi
5:53 PM34 °FOvercast.No wind64%30.33 "Hg10 mi
4:53 PM33 °FOvercast.3 mph66%30.34 "Hg10 mi
3:53 PM33 °FOvercast.5 mph66%30.34 "Hg10 mi
2:53 PM33 °FOvercast.No wind63%30.30 "Hg10 mi
1:53 PM34 °FOvercast.No wind64%30.29 "Hg10 mi
12:53 PM34 °FOvercast.No wind64%30.31 "Hg10 mi
11:53 AM33 °FOvercast.3 mph66%30.32 "Hg10 mi
10:53 AM32 °FOvercast.5 mph69%30.35 "Hg10 mi
9:53 AM32 °FOvercast.5 mph66%30.36 "Hg10 mi
8:53 AM31 °FOvercast.7 mph69%30.34 "Hg10 mi
7:53 AM31 °FOvercast.7 mph73%30.33 "Hg10 mi
6:53 AM31 °FMostly cloudy.6 mph76%30.32 "Hg10 mi
5:53 AM30 °FOvercast.5 mph79%30.31 "Hg10 mi
Weather by CustomWeather, © 2014

See weather overviewHow to use our weather pages